Skip Page Navigation
NASA JPL Caltech
NASA Logo - Jet Propulsion Laboratory + View the NASA Portal
+ Center for Near-Earth Object Studies
JPL Home Earth Solar System Stars & Galaxies Technology
JPL Solar System Dynamics
BODIES ORBITS EPHEMERIDES TOOLS PHYSICAL DATA DISCOVERY FAQ SITE MAP
JPL Small-Body Database Browser
Search: [ help ]  
324586 (2006 XB12)
Classification: Main-belt Asteroid          SPK-ID: 2324586
Ephemeris | Orbit Diagram | Orbital Elements | Mission Design | Physical Parameters | Discovery Circumstances | Close-Approach Data ]

[ show orbit diagram ]
Orbital Elements at Epoch 2459000.5 (2020-May-31.0) TDB
Reference: JPL 15 (heliocentric ecliptic J2000)
 Element Value Uncertainty (1-sigma)   Units 
e .1964557614960682 1.6622e-07  
a 2.545258951801865 2.3674e-08 au
q 2.045228166220945 4.3462e-07 au
i 1.373187159933088 4.0836e-06 deg
node 336.3468706920314 0.00030771 deg
peri 49.33333047651458 0.00030799 deg
M 152.9099485501467 1.3286e-05 deg
tp 2458370.515841878605
(2018-Sep-09.01584188)
5.4848e-05 TDB
period 1483.188628824405
4.06
2.0693e-05
5.665e-08
d
yr
n .2427203074536384 3.3864e-09 deg/d
Q 3.045289737382785 2.8325e-08 au
  Orbit Determination Parameters
   # obs. used (total)      418  
   data-arc span      9132 days (25.00 yr)  
   first obs. used      1995-01-28  
   last obs. used      2020-01-29  
   planetary ephem.      DE431  
   SB-pert. ephem.      SB431-N16  
   condition code      0  
   norm. resid. RMS      .59151  
   source      ORB  
   producer      Otto Matic  
   solution date      2020-Feb-25 20:11:55  

Additional Information
 Earth MOID = 1.04963 au 
 Jupiter MOID = 2.41167 au 
 T_jup = 3.415 
[ show covariance matrix ]

Ephemeris | Orbit Diagram | Orbital Elements | Mission Design | Physical Parameters | Discovery Circumstances | Close-Approach Data ]

Physical Parameter Table
Parameter Symbol Value Units Sigma Reference Notes
absolute magnitude H 16.6   n/a MPO471375  

324586 (2006 XB12)          Discovered 2006-Nov-18 by LINEAR at Socorro
Reference: 20120406/Numbers.arcLast Updated: 2012-04-09

[ show close-approach data ]
Ephemeris | Orbit Diagram | Orbital Elements | Mission Design | Physical Parameters | Discovery Circumstances | Close-Approach Data ]
ABOUT SSD CREDITS/AWARDS PRIVACY/COPYRIGHT GLOSSARY LINKS
FirstGov 2020-Jul-03 21:18 UT
(server date/time)  
NASA Home Page
Site Manager:   Ryan S. Park
Webmaster  Alan B. Chamberlin